Time,TemperatureF,DewpointF,PressureIn,WindDirection,WindDirectionDegrees,WindSpeedMPH,WindSpeedGustMPH,Humidity,HourlyPrecipIn,Conditions,Clouds,dailyrainin,SoftwareType,DateUTC
2013-01-26 00:02:00,31.5,30.4,25.22,North,-999,0.0,3.1,96,0.00,,,-99.99,FreeWX 2.04,2013-01-26 07:02:00,
2013-01-26 00:07:00,31.5,30.4,25.22,West,259,1.0,4.5,96,0.00,,,-99.99,FreeWX 2.04,2013-01-26 07:07:00,
2013-01-26 00:12:00,31.5,30.4,25.22,West,268,2.0,3.6,96,0.00,,,-99.99,FreeWX 2.04,2013-01-26 07:12:00,
2013-01-26 00:17:00,31.5,30.4,25.22,North,-999,0.0,2.7,96,0.00,,,-99.99,FreeWX 2.04,2013-01-26 07:17:00,
2013-01-26 00:22:00,31.6,30.6,25.22,North,-999,0.0,3.1,96,0.00,,,-99.99,FreeWX 2.04,2013-01-26 07:22:00,
2013-01-26 00:27:00,31.6,30.6,25.22,West,270,1.0,4.0,96,0.00,,,-99.99,FreeWX 2.04,2013-01-26 07:27:00,
2013-01-26 00:32:00,31.5,30.4,25.22,West,270,1.0,4.0,96,0.00,,,-99.99,FreeWX 2.04,2013-01-26 07:32:00,
2013-01-26 00:37:00,31.5,30.4,25.22,North,-999,0.0,3.6,96,0.00,,,-99.99,FreeWX 2.04,2013-01-26 07:37:00,
2013-01-26 00:42:00,31.5,30.4,25.22,West,270,1.0,4.0,96,0.00,,,-99.99,FreeWX 2.04,2013-01-26 07:42:00,
2013-01-26 00:47:00,31.5,30.4,25.22,West,270,2.0,3.6,96,0.00,,,-99.99,FreeWX 2.04,2013-01-26 07:47:00,
2013-01-26 00:52:00,31.5,30.4,25.22,West,270,2.0,3.6,96,0.00,,,-99.99,FreeWX 2.04,2013-01-26 07:52:00,
2013-01-26 00:57:00,31.6,30.4,25.22,West,270,2.0,4.0,95,0.00,,,-99.99,FreeWX 2.04,2013-01-26 07:57:00,
2013-01-26 01:02:00,31.6,30.4,25.22,West,270,1.0,3.6,95,0.00,,,-99.99,FreeWX 2.04,2013-01-26 08:02:00,
2013-01-26 01:07:00,31.6,30.6,25.22,West,270,1.0,3.1,96,0.00,,,-99.99,FreeWX 2.04,2013-01-26 08:07:00,
2013-01-26 01:12:00,31.6,30.6,25.22,North,-999,0.0,3.1,96,0.00,,,-99.99,FreeWX 2.04,2013-01-26 08:12:00,
2013-01-26 01:17:00,31.6,30.6,25.22,North,-999,0.0,2.7,96,0.00,,,-99.99,FreeWX 2.04,2013-01-26 08:17:00,
2013-01-26 01:22:00,31.6,30.6,25.22,North,-999,0.0,3.1,96,0.00,,,-99.99,FreeWX 2.04,2013-01-26 08:22:00,
2013-01-26 01:27:00,31.6,30.6,25.22,West,270,1.0,3.1,96,0.00,,,-99.99,FreeWX 2.04,2013-01-26 08:27:00,
2013-01-26 01:32:00,31.6,30.6,25.19,North,-999,0.0,2.7,96,0.00,,,-99.99,FreeWX 2.04,2013-01-26 08:32:00,
2013-01-26 01:37:00,31.6,30.6,25.19,North,-999,0.0,0.0,96,0.00,,,-99.99,FreeWX 2.04,2013-01-26 08:37:00,
2013-01-26 01:42:00,31.5,30.4,25.19,North,-999,0.0,0.0,96,0.00,,,-99.99,FreeWX 2.04,2013-01-26 08:42:00,
2013-01-26 01:47:00,31.6,30.6,25.19,North,-999,0.0,0.0,96,0.00,,,-99.99,FreeWX 2.04,2013-01-26 08:47:00,
2013-01-26 01:52:00,31.6,30.6,25.19,North,-999,0.0,0.0,96,0.00,,,-99.99,FreeWX 2.04,2013-01-26 08:52:00,
2013-01-26 01:57:00,31.6,30.6,25.19,North,-999,0.0,0.0,96,0.00,,,-99.99,FreeWX 2.04,2013-01-26 08:57:00,
2013-01-26 02:02:00,31.6,30.6,25.19,North,-999,0.0,0.0,96,0.00,,,-99.99,FreeWX 2.04,2013-01-26 09:02:00,
2013-01-26 02:07:00,31.6,30.6,25.19,North,-999,0.0,0.0,96,0.00,,,-99.99,FreeWX 2.04,2013-01-26 09:07:00,
2013-01-26 02:12:00,31.6,30.6,25.19,North,-999,0.0,0.0,96,0.00,,,-99.99,FreeWX 2.04,2013-01-26 09:12:00,
2013-01-26 02:17:00,31.6,30.6,25.19,North,-999,0.0,0.0,96,0.00,,,-99.99,FreeWX 2.04,2013-01-26 09:17:00,
2013-01-26 02:22:00,31.6,30.6,25.19,North,-999,0.0,0.0,96,0.00,,,-99.99,FreeWX 2.04,2013-01-26 09:22:00,
2013-01-26 02:27:00,31.6,30.6,25.19,North,-999,0.0,0.0,96,0.00,,,-99.99,FreeWX 2.04,2013-01-26 09:27:00,
2013-01-26 02:32:00,31.6,30.6,25.19,North,-999,0.0,0.0,96,0.00,,,-99.99,FreeWX 2.04,2013-01-26 09:32:00,
2013-01-26 02:37:00,31.6,30.6,25.19,North,-999,0.0,4.0,96,0.00,,,-99.99,FreeWX 2.04,2013-01-26 09:37:00,
2013-01-26 02:42:00,31.6,30.6,25.19,West,270,2.0,4.5,96,0.00,,,-99.99,FreeWX 2.04,2013-01-26 09:42:00,
2013-01-26 02:47:00,31.5,30.4,25.16,West,270,2.0,4.0,96,0.00,,,-99.99,FreeWX 2.04,2013-01-26 09:47:00,
2013-01-26 02:52:00,31.6,30.6,25.16,West,270,2.0,4.9,96,0.00,,,-99.99,FreeWX 2.04,2013-01-26 09:52:00,
2013-01-26 02:57:00,31.6,30.6,25.16,West,270,3.0,5.8,96,0.00,,,-99.99,FreeWX 2.04,2013-01-26 09:57:00,
2013-01-26 03:02:00,31.6,30.6,25.16,West,270,4.0,4.9,96,0.00,,,-99.99,FreeWX 2.04,2013-01-26 10:02:00,
2013-01-26 03:07:00,31.6,30.6,25.16,West,270,3.0,4.5,96,0.00,,,-99.99,FreeWX 2.04,2013-01-26 10:07:00,
2013-01-26 03:12:00,31.8,30.7,25.16,West,270,3.0,4.5,96,0.00,,,-99.99,FreeWX 2.04,2013-01-26 10:12:00,
2013-01-26 03:17:00,31.6,30.6,25.16,West,270,3.0,4.0,96,0.00,,,-99.99,FreeWX 2.04,2013-01-26 10:17:00,
2013-01-26 03:23:00,31.6,30.6,25.16,West,270,2.0,3.6,96,0.00,,,-99.99,FreeWX 2.04,2013-01-26 10:23:00,
2013-01-26 03:28:00,31.6,30.6,25.16,West,270,2.0,3.6,96,0.00,,,-99.99,FreeWX 2.04,2013-01-26 10:28:00,
2013-01-26 03:33:00,31.6,30.6,25.16,West,270,1.0,3.1,96,0.00,,,-99.99,FreeWX 2.04,2013-01-26 10:33:00,
2013-01-26 03:38:00,31.8,30.7,25.16,North,-999,0.0,3.1,96,0.00,,,-99.99,FreeWX 2.04,2013-01-26 10:38:00,
2013-01-26 03:43:00,31.8,30.7,25.16,West,270,2.0,3.6,96,0.00,,,-99.99,FreeWX 2.04,2013-01-26 10:43:00,
2013-01-26 03:48:00,31.8,30.7,25.16,West,270,3.0,4.5,96,0.00,,,-99.99,FreeWX 2.04,2013-01-26 10:48:00,
2013-01-26 03:53:00,31.8,30.7,25.16,West,270,2.0,3.1,96,0.00,,,-99.99,FreeWX 2.04,2013-01-26 10:53:00,
2013-01-26 03:58:00,31.8,30.7,25.16,West,270,1.0,3.6,96,0.00,,,-99.99,FreeWX 2.04,2013-01-26 10:58:00,
2013-01-26 04:03:00,31.8,30.7,25.16,North,-999,0.0,3.1,96,0.00,,,-99.99,FreeWX 2.04,2013-01-26 11:03:00,
2013-01-26 04:08:00,31.8,30.7,25.16,North,-999,0.0,3.6,96,0.00,,,-99.99,FreeWX 2.04,2013-01-26 11:08:00,
2013-01-26 04:13:00,31.8,30.7,25.16,North,-999,0.0,0.0,96,0.00,,,-99.99,FreeWX 2.04,2013-01-26 11:13:00,
2013-01-26 04:18:00,31.8,30.7,25.13,North,-999,0.0,3.1,96,0.00,,,-99.99,FreeWX 2.04,2013-01-26 11:18:00,
2013-01-26 04:23:00,31.8,30.7,25.13,West,270,1.0,3.1,96,0.00,,,-99.99,FreeWX 2.04,2013-01-26 11:23:00,
2013-01-26 04:28:00,31.8,30.7,25.13,West,270,2.0,3.6,96,0.00,,,-99.99,FreeWX 2.04,2013-01-26 11:28:00,
2013-01-26 04:33:00,31.8,30.7,25.13,West,270,1.0,2.7,96,0.00,,,-99.99,FreeWX 2.04,2013-01-26 11:33:00,
2013-01-26 04:38:00,32.0,30.9,25.13,North,-999,0.0,3.1,96,0.00,,,-99.99,FreeWX 2.04,2013-01-26 11:38:00,
2013-01-26 04:43:00,32.0,30.9,25.13,North,-999,0.0,3.1,96,0.00,,,-99.99,FreeWX 2.04,2013-01-26 11:43:00,
2013-01-26 04:48:00,32.0,30.9,25.13,North,-999,0.0,2.7,96,0.00,,,-99.99,FreeWX 2.04,2013-01-26 11:48:00,
2013-01-26 04:53:00,32.0,30.9,25.13,North,-999,0.0,3.1,96,0.00,,,-99.99,FreeWX 2.04,2013-01-26 11:53:00,
2013-01-26 04:58:00,32.0,30.9,25.13,West,270,1.0,3.6,96,0.00,,,-99.99,FreeWX 2.04,2013-01-26 11:58:00,
2013-01-26 05:08:00,32.5,31.5,25.13,West,270,2.0,3.6,96,0.00,,,-99.99,FreeWX 2.04,2013-01-26 12:08:00,
2013-01-26 05:13:00,32.7,31.5,25.13,West,279,2.0,5.4,95,0.00,,,-99.99,FreeWX 2.04,2013-01-26 12:13:00,
2013-01-26 05:18:00,32.7,31.5,25.13,NW,326,3.0,4.9,95,0.00,,,-99.99,FreeWX 2.04,2013-01-26 12:18:00,
2013-01-26 05:23:00,32.4,31.3,25.13,North,355,2.0,4.5,96,0.00,,,-99.99,FreeWX 2.04,2013-01-26 12:23:00,
2013-01-26 05:28:00,32.4,31.3,25.13,North,2,2.0,4.9,96,0.00,,,-99.99,FreeWX 2.04,2013-01-26 12:28:00,
2013-01-26 05:39:00,32.5,31.5,25.13,NNE,15,1.0,3.1,96,0.00,,,-99.99,FreeWX 2.04,2013-01-26 12:39:00,
2013-01-26 05:44:00,32.2,31.1,25.13,NNW,333,2.0,6.3,96,0.00,,,-99.99,FreeWX 2.04,2013-01-26 12:44:00,
2013-01-26 05:49:00,32.2,31.1,25.13,SW,236,3.0,5.8,96,0.00,,,-99.99,FreeWX 2.04,2013-01-26 12:49:00,
2013-01-26 05:54:00,31.8,30.7,25.13,SSW,201,4.0,6.7,96,0.00,,,-99.99,FreeWX 2.04,2013-01-26 12:54:00,
2013-01-26 05:59:00,31.8,30.7,25.13,South,176,4.0,4.0,96,0.00,,,-99.99,FreeWX 2.04,2013-01-26 12:59:00,
2013-01-26 06:04:00,31.8,30.7,25.10,South,177,2.0,4.5,96,0.00,,,-99.99,FreeWX 2.04,2013-01-26 13:04:00,
2013-01-26 06:09:00,31.8,30.7,25.10,South,177,2.0,3.1,96,0.00,,,-99.99,FreeWX 2.04,2013-01-26 13:09:00,
2013-01-26 06:14:00,31.8,30.7,25.10,South,177,1.0,3.6,96,0.00,,,-99.99,FreeWX 2.04,2013-01-26 13:14:00,
2013-01-26 06:19:00,32.0,30.9,25.10,South,177,1.0,4.0,96,0.00,,,-99.99,FreeWX 2.04,2013-01-26 13:19:00,
2013-01-26 06:24:00,32.2,31.1,25.10,South,177,1.0,4.5,96,0.00,,,-99.99,FreeWX 2.04,2013-01-26 13:24:00,
2013-01-26 06:29:00,32.0,30.9,25.10,SSE,168,3.0,5.8,96,0.00,,,-99.99,FreeWX 2.04,2013-01-26 13:29:00,
2013-01-26 06:34:00,31.8,30.7,25.10,ESE,111,4.0,6.3,96,0.00,,,-99.99,FreeWX 2.04,2013-01-26 13:34:00,
2013-01-26 06:39:00,32.0,30.7,25.10,ENE,66,4.0,6.3,95,0.00,,,-99.99,FreeWX 2.04,2013-01-26 13:39:00,
2013-01-26 06:44:00,32.2,30.9,25.10,ENE,64,4.0,5.4,95,0.00,,,-99.99,FreeWX 2.04,2013-01-26 13:44:00,
2013-01-26 06:49:00,32.2,30.9,25.10,ENE,64,3.0,4.9,95,0.00,,,-99.99,FreeWX 2.04,2013-01-26 13:49:00,
2013-01-26 06:54:00,32.7,31.5,25.10,NE,56,3.0,5.4,95,0.00,,,-99.99,FreeWX 2.04,2013-01-26 13:54:00,
2013-01-26 06:59:00,32.4,31.1,25.10,ENE,62,3.0,5.8,95,0.00,,,-99.99,FreeWX 2.04,2013-01-26 13:59:00,
2013-01-26 07:04:00,31.8,30.6,25.10,SE,125,4.0,6.7,95,0.00,,,-99.99,FreeWX 2.04,2013-01-26 14:04:00,
2013-01-26 07:09:00,31.6,30.4,25.10,SSE,149,4.0,5.4,95,0.00,,,-99.99,FreeWX 2.04,2013-01-26 14:09:00,
2013-01-26 07:14:00,31.6,30.4,25.10,SSE,163,4.0,5.4,95,0.00,,,-99.99,FreeWX 2.04,2013-01-26 14:14:00,
2013-01-26 07:19:00,31.6,30.4,25.10,South,174,3.0,4.5,95,0.00,,,-99.99,FreeWX 2.04,2013-01-26 14:19:00,
2013-01-26 07:24:00,31.8,30.6,25.10,South,174,3.0,4.0,95,0.00,,,-99.99,FreeWX 2.04,2013-01-26 14:24:00,
2013-01-26 07:29:00,31.8,30.6,25.10,South,174,3.0,4.0,95,0.00,,,-99.99,FreeWX 2.04,2013-01-26 14:29:00,
2013-01-26 07:34:00,31.8,30.6,25.10,South,174,2.0,3.6,95,0.00,,,-99.99,FreeWX 2.04,2013-01-26 14:34:00,
2013-01-26 07:39:00,31.8,30.6,25.10,South,173,1.0,3.1,95,0.00,,,-99.99,FreeWX 2.04,2013-01-26 14:39:00,
2013-01-26 07:44:00,31.8,30.6,25.10,North,-999,0.0,2.7,95,0.00,,,-99.99,FreeWX 2.04,2013-01-26 14:44:00,
2013-01-26 07:49:00,31.8,30.6,25.10,North,-999,0.0,0.0,95,0.00,,,-99.99,FreeWX 2.04,2013-01-26 14:49:00,
2013-01-26 07:54:00,32.0,30.7,25.10,North,-999,0.0,0.0,95,0.00,,,-99.99,FreeWX 2.04,2013-01-26 14:54:00,
2013-01-26 07:59:00,32.0,30.7,25.10,North,-999,0.0,0.0,95,0.00,,,-99.99,FreeWX 2.04,2013-01-26 14:59:00,
2013-01-26 08:04:00,32.0,30.7,25.10,North,-999,0.0,0.0,95,0.00,,,-99.99,FreeWX 2.04,2013-01-26 15:04:00,
2013-01-26 08:09:00,32.2,30.9,25.10,North,-999,0.0,0.0,95,0.00,,,-99.99,FreeWX 2.04,2013-01-26 15:09:00,
2013-01-26 08:14:00,32.2,30.9,25.10,North,-999,0.0,0.0,95,0.00,,,-99.99,FreeWX 2.04,2013-01-26 15:14:00,
2013-01-26 08:20:00,32.2,30.9,25.10,North,-999,0.0,2.7,95,0.00,,,-99.99,FreeWX 2.04,2013-01-26 15:20:00,
2013-01-26 08:25:00,32.2,30.9,25.10,North,-999,0.0,5.4,95,0.00,,,-99.99,FreeWX 2.04,2013-01-26 15:25:00,
2013-01-26 08:30:00,32.5,31.3,25.10,SW,218,2.0,5.8,95,0.00,,,-99.99,FreeWX 2.04,2013-01-26 15:30:00,
2013-01-26 08:35:00,32.5,31.3,25.10,WSW,257,3.0,4.5,95,0.00,,,-99.99,FreeWX 2.04,2013-01-26 15:35:00,
2013-01-26 08:40:00,32.7,31.5,25.10,WSW,257,2.0,3.6,95,0.00,,,-99.99,FreeWX 2.04,2013-01-26 15:40:00,
2013-01-26 08:45:00,32.7,31.5,25.10,North,-999,0.0,0.0,95,0.00,,,-99.99,FreeWX 2.04,2013-01-26 15:45:00,
2013-01-26 08:50:00,32.7,31.5,25.10,North,-999,0.0,2.7,95,0.00,,,-99.99,FreeWX 2.04,2013-01-26 15:50:00,
2013-01-26 08:55:00,32.9,31.6,25.10,North,-999,0.0,0.0,95,0.00,,,-99.99,FreeWX 2.04,2013-01-26 15:55:00,
2013-01-26 09:00:00,32.9,31.6,25.10,North,-999,0.0,0.0,95,0.00,,,-99.99,FreeWX 2.04,2013-01-26 16:00:00,
2013-01-26 09:05:00,33.1,31.8,25.10,North,-999,0.0,3.6,95,0.00,,,-99.99,FreeWX 2.04,2013-01-26 16:05:00,
2013-01-26 09:10:00,33.1,31.8,25.10,WSW,257,2.0,4.9,95,0.00,,,-99.99,FreeWX 2.04,2013-01-26 16:10:00,
2013-01-26 09:15:00,33.1,31.8,25.10,WNW,301,3.0,5.4,95,0.00,,,-99.99,FreeWX 2.04,2013-01-26 16:15:00,
2013-01-26 09:20:00,33.4,32.2,25.07,North,6,3.0,6.3,95,0.00,,,-99.99,FreeWX 2.04,2013-01-26 16:20:00,
2013-01-26 09:25:00,33.6,32.4,25.07,NNE,17,3.0,4.9,95,0.00,,,-99.99,FreeWX 2.04,2013-01-26 16:25:00,
2013-01-26 09:30:00,33.8,32.5,25.07,NNE,20,3.0,4.9,95,0.00,,,-99.99,FreeWX 2.04,2013-01-26 16:30:00,
2013-01-26 09:35:00,34.5,33.3,25.07,NNE,20,4.0,4.9,95,0.00,,,-99.99,FreeWX 2.04,2013-01-26 16:35:00,
2013-01-26 09:40:00,35.2,33.6,25.07,NNE,20,3.0,4.5,94,0.00,,,-99.99,FreeWX 2.04,2013-01-26 16:40:00,
2013-01-26 09:45:00,36.1,34.5,25.07,NNE,20,4.0,5.8,94,0.00,,,-99.99,FreeWX 2.04,2013-01-26 16:45:00,
2013-01-26 09:50:00,36.7,35.1,25.07,NNE,20,4.0,5.8,94,0.00,,,-99.99,FreeWX 2.04,2013-01-26 16:50:00,
2013-01-26 09:55:00,35.2,34.0,25.07,NNE,20,2.0,4.5,95,0.00,,,-99.99,FreeWX 2.04,2013-01-26 16:55:00,
2013-01-26 10:00:00,36.7,35.1,25.07,North,8,2.0,5.4,94,0.00,,,-99.99,FreeWX 2.04,2013-01-26 17:00:00,
2013-01-26 10:05:00,37.2,35.6,25.07,North,352,4.0,6.3,94,0.00,,,-99.99,FreeWX 2.04,2013-01-26 17:05:00,
2013-01-26 10:10:00,37.6,36.0,25.07,North,352,4.0,6.9,94,0.00,,,-99.99,FreeWX 2.04,2013-01-26 17:10:00,
2013-01-26 10:15:00,37.9,36.7,25.07,North,353,4.0,6.7,95,0.00,,,-99.99,FreeWX 2.04,2013-01-26 17:15:00,
2013-01-26 10:20:00,38.3,37.0,25.07,North,359,4.0,6.3,95,0.00,,,-99.99,FreeWX 2.04,2013-01-26 17:20:00,
2013-01-26 10:25:00,38.7,37.4,25.07,North,357,4.0,6.7,95,0.00,,,-99.99,FreeWX 2.04,2013-01-26 17:25:00,
2013-01-26 10:30:00,38.5,37.2,25.07,NNW,342,4.0,4.9,95,0.00,,,-99.99,FreeWX 2.04,2013-01-26 17:30:00,
2013-01-26 10:35:00,38.5,37.2,25.07,NNW,336,3.0,4.5,95,0.00,,,-99.99,FreeWX 2.04,2013-01-26 17:35:00,
2013-01-26 10:40:00,38.8,37.6,25.07,NNW,336,3.0,4.5,95,0.00,,,-99.99,FreeWX 2.04,2013-01-26 17:40:00,
2013-01-26 10:45:00,39.0,37.8,25.07,NNW,336,3.0,4.9,95,0.00,,,-99.99,FreeWX 2.04,2013-01-26 17:45:00,
2013-01-26 10:50:00,38.1,37.0,25.07,NNW,330,4.0,7.4,96,0.00,,,-99.99,FreeWX 2.04,2013-01-26 17:50:00,
2013-01-26 10:55:00,37.4,36.3,25.07,NW,316,5.0,7.4,96,0.00,,,-99.99,FreeWX 2.04,2013-01-26 17:55:00,
2013-01-26 11:00:00,37.2,36.1,25.07,NW,312,5.0,6.7,96,0.00,,,-99.99,FreeWX 2.04,2013-01-26 18:00:00,
2013-01-26 11:05:00,37.2,36.0,25.04,NW,313,5.0,7.4,95,0.00,,,-99.99,FreeWX 2.04,2013-01-26 18:05:00,
2013-01-26 11:10:00,37.4,36.1,25.04,NW,305,4.0,6.7,95,0.00,,,-99.99,FreeWX 2.04,2013-01-26 18:10:00,
2013-01-26 11:15:00,37.6,36.3,25.04,WNW,300,4.0,4.9,95,0.00,,,-99.99,FreeWX 2.04,2013-01-26 18:15:00,
2013-01-26 11:20:00,37.8,36.5,25.04,NW,306,2.0,4.5,95,0.00,,,-99.99,FreeWX 2.04,2013-01-26 18:20:00,
2013-01-26 11:25:00,38.3,37.0,25.04,North,-999,0.0,0.0,95,0.00,,,-99.99,FreeWX 2.04,2013-01-26 18:25:00,
2013-01-26 11:30:00,38.1,36.9,25.04,North,-999,0.0,3.1,95,0.00,,,-99.99,FreeWX 2.04,2013-01-26 18:30:00,
2013-01-26 11:35:00,37.9,36.7,25.04,NW,320,1.0,4.0,95,0.00,,,-99.99,FreeWX 2.04,2013-01-26 18:35:00,
2013-01-26 11:40:00,37.6,36.3,25.04,NW,320,3.0,4.5,95,0.00,,,-99.99,FreeWX 2.04,2013-01-26 18:40:00,
2013-01-26 11:45:00,37.4,36.1,25.04,NW,322,3.0,4.5,95,0.00,,,-99.99,FreeWX 2.04,2013-01-26 18:45:00,
2013-01-26 11:50:00,37.2,36.0,25.04,NW,324,3.0,4.9,95,0.00,,,-99.99,FreeWX 2.04,2013-01-26 18:50:00,
2013-01-26 11:55:00,37.4,36.1,25.04,NW,324,2.0,4.5,95,0.00,,,-99.99,FreeWX 2.04,2013-01-26 18:55:00,
2013-01-26 12:00:00,37.4,36.1,25.04,NNW,342,2.0,4.9,95,0.00,,,-99.99,FreeWX 2.04,2013-01-26 19:00:00,
2013-01-26 12:05:00,37.4,36.1,25.01,North,3,1.0,3.1,95,0.00,,,-99.99,FreeWX 2.04,2013-01-26 19:05:00,
2013-01-26 12:10:00,37.4,36.1,25.01,North,6,1.0,3.6,95,0.00,,,-99.99,FreeWX 2.04,2013-01-26 19:10:00,
2013-01-26 12:15:00,37.6,36.3,25.01,North,6,1.0,2.7,95,0.00,,,-99.99,FreeWX 2.04,2013-01-26 19:15:00,
2013-01-26 12:20:00,38.1,36.9,25.01,North,-999,0.0,0.0,95,0.00,,,-99.99,FreeWX 2.04,2013-01-26 19:20:00,
2013-01-26 12:25:00,38.5,37.2,25.01,North,-999,0.0,0.0,95,0.00,,,-99.99,FreeWX 2.04,2013-01-26 19:25:00,
2013-01-26 12:30:00,38.3,37.0,25.01,North,-999,0.0,3.1,95,0.00,,,-99.99,FreeWX 2.04,2013-01-26 19:30:00,
2013-01-26 12:35:00,37.9,36.7,24.98,North,6,1.0,3.6,95,0.00,,,-99.99,FreeWX 2.04,2013-01-26 19:35:00,
2013-01-26 12:40:00,37.8,36.5,24.98,North,6,1.0,3.6,95,0.00,,,-99.99,FreeWX 2.04,2013-01-26 19:40:00,
2013-01-26 12:45:00,38.1,36.9,24.98,North,-999,0.0,0.0,95,0.00,,,-99.99,FreeWX 2.04,2013-01-26 19:45:00,
2013-01-26 12:50:00,38.8,37.2,24.98,North,-999,0.0,0.0,94,0.00,,,-99.99,FreeWX 2.04,2013-01-26 19:50:00,
2013-01-26 12:55:00,38.8,37.2,24.98,North,-999,0.0,0.0,94,0.00,,,-99.99,FreeWX 2.04,2013-01-26 19:55:00,
2013-01-26 13:00:00,38.8,37.2,24.98,North,-999,0.0,0.0,94,0.00,,,-99.99,FreeWX 2.04,2013-01-26 20:00:00,
2013-01-26 13:05:00,38.3,36.7,24.98,North,-999,0.0,4.0,94,0.00,,,-99.99,FreeWX 2.04,2013-01-26 20:05:00,
2013-01-26 13:10:00,37.6,36.0,24.98,North,353,3.0,5.8,94,0.00,,,-99.99,FreeWX 2.04,2013-01-26 20:10:00,
2013-01-26 13:15:00,37.4,36.1,24.98,NW,325,4.0,5.4,95,0.00,,,-99.99,FreeWX 2.04,2013-01-26 20:15:00,
2013-01-26 13:20:00,37.4,36.1,24.95,NW,315,4.0,4.5,95,0.00,,,-99.99,FreeWX 2.04,2013-01-26 20:20:00,
2013-01-26 13:25:00,37.2,36.0,24.95,NW,315,3.0,4.5,95,0.00,,,-99.99,FreeWX 2.04,2013-01-26 20:25:00,
2013-01-26 13:30:00,37.0,35.8,24.95,NW,315,4.0,4.9,95,0.00,,,-99.99,FreeWX 2.04,2013-01-26 20:30:00,
2013-01-26 13:35:00,37.2,36.0,24.95,NW,315,3.0,5.4,95,0.00,,,-99.99,FreeWX 2.04,2013-01-26 20:35:00,
2013-01-26 13:40:00,37.4,36.1,24.95,NW,315,2.0,4.0,95,0.00,,,-99.99,FreeWX 2.04,2013-01-26 20:40:00,
2013-01-26 13:45:00,37.6,36.3,24.95,NW,315,3.0,4.9,95,0.00,,,-99.99,FreeWX 2.04,2013-01-26 20:45:00,
2013-01-26 13:50:00,37.6,36.3,24.95,NW,315,3.0,4.9,95,0.00,,,-99.99,FreeWX 2.04,2013-01-26 20:50:00,
2013-01-26 13:55:00,37.6,36.3,24.95,NW,315,3.0,4.9,95,0.00,,,-99.99,FreeWX 2.04,2013-01-26 20:55:00,
2013-01-26 14:00:00,37.2,36.0,24.95,NW,315,3.0,4.9,95,0.00,,,-99.99,FreeWX 2.04,2013-01-26 21:00:00,
2013-01-26 14:05:00,36.9,35.6,24.95,NW,315,4.0,5.4,95,0.00,,,-99.99,FreeWX 2.04,2013-01-26 21:05:00,
2013-01-26 14:10:00,36.7,35.4,24.95,NW,315,4.0,5.4,95,0.00,,,-99.99,FreeWX 2.04,2013-01-26 21:10:00,
2013-01-26 14:15:00,36.7,35.4,24.95,NW,315,3.0,4.0,95,0.00,,,-99.99,FreeWX 2.04,2013-01-26 21:15:00,
2013-01-26 14:20:00,36.9,35.6,24.95,NW,315,3.0,4.0,95,0.00,,,-99.99,FreeWX 2.04,2013-01-26 21:20:00,
2013-01-26 14:25:00,37.0,35.8,24.95,NW,315,1.0,2.7,95,0.00,,,-99.99,FreeWX 2.04,2013-01-26 21:25:00,
2013-01-26 14:30:00,37.4,36.1,24.95,North,-999,0.0,0.0,95,0.00,,,-99.99,FreeWX 2.04,2013-01-26 21:30:00,
2013-01-26 14:35:00,37.4,36.1,24.92,North,-999,0.0,0.0,95,0.00,,,-99.99,FreeWX 2.04,2013-01-26 21:35:00,
2013-01-26 14:40:00,37.4,36.1,24.92,North,-999,0.0,0.0,95,0.00,,,-99.99,FreeWX 2.04,2013-01-26 21:40:00,
2013-01-26 14:45:00,37.6,36.3,24.92,North,-999,0.0,0.0,95,0.00,,,-99.99,FreeWX 2.04,2013-01-26 21:45:00,
2013-01-26 14:50:00,37.6,36.3,24.92,North,-999,0.0,0.0,95,0.00,,,-99.99,FreeWX 2.04,2013-01-26 21:50:00,
2013-01-26 14:55:00,37.6,36.3,24.92,North,-999,0.0,3.1,95,0.00,,,-99.99,FreeWX 2.04,2013-01-26 21:55:00,
2013-01-26 15:01:00,37.8,36.5,24.92,North,-999,0.0,2.7,95,0.00,,,-99.99,FreeWX 2.04,2013-01-26 22:01:00,
2013-01-26 15:06:00,37.8,36.5,24.92,North,-999,0.0,0.0,95,0.00,,,-99.99,FreeWX 2.04,2013-01-26 22:06:00,
2013-01-26 15:11:00,37.8,36.5,24.92,North,-999,0.0,2.7,95,0.00,,,-99.99,FreeWX 2.04,2013-01-26 22:11:00,
2013-01-26 15:16:00,37.9,36.7,24.92,North,-999,0.0,2.7,95,0.00,,,-99.99,FreeWX 2.04,2013-01-26 22:16:00,
2013-01-26 15:21:00,37.8,36.5,24.92,North,-999,0.0,0.0,95,0.00,,,-99.99,FreeWX 2.04,2013-01-26 22:21:00,
2013-01-26 15:26:00,37.8,36.5,24.92,North,-999,0.0,0.0,95,0.00,,,-99.99,FreeWX 2.04,2013-01-26 22:26:00,
2013-01-26 15:31:00,37.6,36.3,24.92,North,-999,0.0,2.7,95,0.00,,,-99.99,FreeWX 2.04,2013-01-26 22:31:00,
2013-01-26 15:36:00,37.4,36.1,24.92,North,-999,0.0,2.7,95,0.00,,,-99.99,FreeWX 2.04,2013-01-26 22:36:00,
2013-01-26 15:41:00,37.4,36.1,24.92,North,-999,0.0,0.0,95,0.00,,,-99.99,FreeWX 2.04,2013-01-26 22:41:00,
2013-01-26 15:46:00,37.4,36.1,24.92,North,-999,0.0,3.1,95,0.00,,,-99.99,FreeWX 2.04,2013-01-26 22:46:00,
2013-01-26 15:51:00,37.4,36.1,24.92,NW,315,2.0,3.1,95,0.00,,,-99.99,FreeWX 2.04,2013-01-26 22:51:00,
2013-01-26 15:56:00,37.4,36.1,24.92,NW,315,2.0,3.1,95,0.00,,,-99.99,FreeWX 2.04,2013-01-26 22:56:00,
2013-01-26 16:01:00,37.4,36.1,24.92,NW,315,1.0,2.7,95,0.00,,,-99.99,FreeWX 2.04,2013-01-26 23:01:00,
2013-01-26 16:06:00,37.6,36.3,24.89,North,-999,0.0,0.0,95,0.00,,,-99.99,FreeWX 2.04,2013-01-26 23:06:00,
2013-01-26 16:11:00,37.6,36.3,24.89,North,-999,0.0,0.0,95,0.00,,,-99.99,FreeWX 2.04,2013-01-26 23:11:00,
2013-01-26 16:16:00,37.0,35.8,24.89,North,-999,0.0,0.0,95,0.00,,,-99.99,FreeWX 2.04,2013-01-26 23:16:00,
2013-01-26 16:21:00,37.0,35.8,24.89,North,-999,0.0,0.0,95,0.00,,,-99.99,FreeWX 2.04,2013-01-26 23:21:00,
2013-01-26 16:26:00,37.0,35.8,24.89,North,-999,0.0,3.6,95,0.00,,,-99.99,FreeWX 2.04,2013-01-26 23:26:00,
2013-01-26 16:31:00,36.5,35.2,24.89,NW,315,1.0,4.0,95,0.00,,,-99.99,FreeWX 2.04,2013-01-26 23:31:00,
2013-01-26 16:36:00,36.0,34.9,24.89,NW,315,3.0,4.5,96,0.00,,,-99.99,FreeWX 2.04,2013-01-26 23:36:00,
2013-01-26 16:41:00,35.8,34.5,24.89,NW,315,2.0,3.6,95,0.00,,,-99.99,FreeWX 2.04,2013-01-26 23:41:00,
2013-01-26 16:46:00,35.8,34.5,24.89,NW,315,1.0,2.7,95,0.00,,,-99.99,FreeWX 2.04,2013-01-26 23:46:00,
2013-01-26 16:51:00,35.8,34.5,24.89,North,-999,0.0,2.7,95,0.00,,,-99.99,FreeWX 2.04,2013-01-26 23:51:00,
2013-01-26 16:56:00,35.6,34.3,24.89,North,-999,0.0,0.0,95,0.00,,,-99.99,FreeWX 2.04,2013-01-26 23:56:00,
2013-01-26 17:01:00,35.6,34.3,24.89,North,-999,0.0,0.0,95,0.00,,,-99.99,FreeWX 2.04,2013-01-27 00:01:00,
2013-01-26 17:06:00,35.6,34.3,24.89,North,-999,0.0,0.0,95,0.00,,,-99.99,FreeWX 2.04,2013-01-27 00:06:00,
2013-01-26 17:11:00,35.4,34.2,24.89,NW,315,1.0,4.0,95,0.00,,,-99.99,FreeWX 2.04,2013-01-27 00:11:00,
2013-01-26 17:16:00,35.4,34.2,24.89,NW,315,2.0,4.0,95,0.00,,,-99.99,FreeWX 2.04,2013-01-27 00:16:00,
2013-01-26 17:21:00,35.4,34.2,24.89,NW,315,3.0,4.0,95,0.00,,,-99.99,FreeWX 2.04,2013-01-27 00:21:00,
2013-01-26 17:26:00,35.2,34.0,24.89,NW,315,2.0,4.0,95,0.00,,,-99.99,FreeWX 2.04,2013-01-27 00:26:00,
2013-01-26 17:31:00,35.2,34.0,24.89,North,-999,0.0,0.0,95,0.00,,,-99.99,FreeWX 2.04,2013-01-27 00:31:00,
2013-01-26 17:36:00,35.2,34.0,24.89,North,-999,0.0,0.0,95,0.00,,,-99.99,FreeWX 2.04,2013-01-27 00:36:00,
2013-01-26 17:41:00,35.2,34.0,24.89,North,-999,0.0,2.7,95,0.00,,,-99.99,FreeWX 2.04,2013-01-27 00:41:00,
2013-01-26 17:46:00,35.2,34.0,24.89,North,-999,0.0,2.7,95,0.00,,,-99.99,FreeWX 2.04,2013-01-27 00:46:00,
2013-01-26 17:51:00,35.2,33.6,24.89,North,-999,0.0,2.7,94,0.00,,,-99.99,FreeWX 2.04,2013-01-27 00:51:00,
2013-01-26 17:56:00,35.1,33.4,24.89,North,-999,0.0,2.7,94,0.00,,,-99.99,FreeWX 2.04,2013-01-27 00:56:00,
2013-01-26 18:01:00,35.1,33.4,24.89,North,-999,0.0,0.0,94,0.00,,,-99.99,FreeWX 2.04,2013-01-27 01:01:00,
2013-01-26 18:06:00,34.9,33.3,24.89,North,-999,0.0,3.1,94,0.00,,,-99.99,FreeWX 2.04,2013-01-27 01:06:00,
2013-01-26 18:11:00,35.1,33.4,24.89,NW,315,2.0,4.0,94,0.00,,,-99.99,FreeWX 2.04,2013-01-27 01:11:00,
2013-01-26 18:16:00,34.9,33.3,24.89,NW,315,3.0,4.0,94,0.00,,,-99.99,FreeWX 2.04,2013-01-27 01:16:00,
2013-01-26 18:21:00,34.9,33.3,24.89,NW,315,3.0,4.0,94,0.00,,,-99.99,FreeWX 2.04,2013-01-27 01:21:00,
2013-01-26 18:26:00,34.9,33.3,24.89,NW,315,2.0,3.6,94,0.00,,,-99.99,FreeWX 2.04,2013-01-27 01:26:00,
2013-01-26 18:31:00,34.9,33.3,24.89,NW,315,2.0,3.1,94,0.00,,,-99.99,FreeWX 2.04,2013-01-27 01:31:00,
2013-01-26 18:36:00,34.9,33.1,24.89,NW,315,1.0,2.7,93,0.00,,,-99.99,FreeWX 2.04,2013-01-27 01:36:00,
2013-01-26 18:41:00,34.9,33.1,24.89,North,-999,0.0,2.7,93,0.00,,,-99.99,FreeWX 2.04,2013-01-27 01:41:00,
2013-01-26 18:46:00,34.7,32.9,24.89,North,-999,0.0,0.0,93,0.00,,,-99.99,FreeWX 2.04,2013-01-27 01:46:00,
2013-01-26 18:51:00,34.9,33.1,24.89,North,-999,0.0,0.0,93,0.00,,,-99.99,FreeWX 2.04,2013-01-27 01:51:00,
2013-01-26 18:56:00,34.9,33.1,24.89,North,-999,0.0,0.0,93,0.00,,,-99.99,FreeWX 2.04,2013-01-27 01:56:00,
2013-01-26 19:01:00,34.9,33.1,24.89,North,-999,0.0,0.0,93,0.00,,,-99.99,FreeWX 2.04,2013-01-27 02:01:00,
2013-01-26 19:06:00,34.9,33.1,24.89,North,-999,0.0,3.1,93,0.00,,,-99.99,FreeWX 2.04,2013-01-27 02:06:00,
2013-01-26 19:11:00,34.9,33.1,24.89,NW,315,1.0,3.1,93,0.00,,,-99.99,FreeWX 2.04,2013-01-27 02:11:00,
2013-01-26 19:16:00,34.9,33.1,24.89,NW,315,1.0,3.1,93,0.00,,,-99.99,FreeWX 2.04,2013-01-27 02:16:00,
2013-01-26 19:21:00,34.7,32.9,24.89,NW,315,1.0,3.1,93,0.00,,,-99.99,FreeWX 2.04,2013-01-27 02:21:00,
2013-01-26 19:26:00,34.7,32.9,24.89,NW,315,2.0,4.0,93,0.00,,,-99.99,FreeWX 2.04,2013-01-27 02:26:00,
2013-01-26 19:31:00,34.7,32.9,24.89,NW,315,2.0,3.1,93,0.00,,,-99.99,FreeWX 2.04,2013-01-27 02:31:00,
2013-01-26 19:36:00,34.5,32.7,24.89,NW,315,2.0,3.6,93,0.00,,,-99.99,FreeWX 2.04,2013-01-27 02:36:00,
2013-01-26 19:41:00,34.5,32.7,24.89,NW,315,2.0,3.6,93,0.00,,,-99.99,FreeWX 2.04,2013-01-27 02:41:00,
2013-01-26 19:46:00,34.3,32.5,24.89,NW,315,1.0,3.6,93,0.00,,,-99.99,FreeWX 2.04,2013-01-27 02:46:00,
2013-01-26 19:51:00,34.5,32.7,24.89,NW,315,1.0,3.1,93,0.00,,,-99.99,FreeWX 2.04,2013-01-27 02:51:00,
2013-01-26 20:02:00,34.5,32.7,24.89,North,-999,0.0,0.0,93,0.00,,,-99.99,FreeWX 2.04,2013-01-27 03:02:00,
2013-01-26 20:07:00,34.5,32.7,24.89,North,-999,0.0,3.1,93,0.00,,,-99.99,FreeWX 2.04,2013-01-27 03:07:00,
2013-01-26 20:12:00,34.3,32.5,24.89,North,-999,0.0,2.7,93,0.00,,,-99.99,FreeWX 2.04,2013-01-27 03:12:00,
2013-01-26 20:17:00,34.3,32.5,24.89,North,-999,0.0,2.7,93,0.00,,,-99.99,FreeWX 2.04,2013-01-27 03:17:00,
2013-01-26 20:22:00,34.3,32.5,24.89,North,-999,0.0,2.7,93,0.00,,,-99.99,FreeWX 2.04,2013-01-27 03:22:00,
2013-01-26 20:27:00,34.3,32.5,24.89,North,-999,0.0,2.7,93,0.00,,,-99.99,FreeWX 2.04,2013-01-27 03:27:00,
2013-01-26 20:32:00,34.3,32.5,24.89,North,-999,0.0,0.0,93,0.00,,,-99.99,FreeWX 2.04,2013-01-27 03:32:00,
2013-01-26 20:37:00,34.5,32.7,24.89,North,-999,0.0,0.0,93,0.00,,,-99.99,FreeWX 2.04,2013-01-27 03:37:00,
2013-01-26 20:42:00,34.5,32.7,24.89,North,-999,0.0,0.0,93,0.00,,,-99.99,FreeWX 2.04,2013-01-27 03:42:00,
2013-01-26 20:47:00,34.5,32.7,24.89,North,-999,0.0,0.0,93,0.00,,,-99.99,FreeWX 2.04,2013-01-27 03:47:00,
2013-01-26 20:52:00,34.5,32.7,24.89,North,-999,0.0,0.0,93,0.00,,,-99.99,FreeWX 2.04,2013-01-27 03:52:00,
2013-01-26 20:57:00,34.5,32.7,24.89,North,-999,0.0,0.0,93,0.00,,,-99.99,FreeWX 2.04,2013-01-27 03:57:00,
2013-01-26 21:02:00,34.5,32.7,24.89,North,-999,0.0,0.0,93,0.00,,,-99.99,FreeWX 2.04,2013-01-27 04:02:00,
2013-01-26 21:07:00,34.5,32.7,24.89,North,-999,0.0,2.7,93,0.00,,,-99.99,FreeWX 2.04,2013-01-27 04:07:00,
2013-01-26 21:12:00,34.5,32.7,24.89,North,-999,0.0,0.0,93,0.00,,,-99.99,FreeWX 2.04,2013-01-27 04:12:00,
2013-01-26 21:17:00,34.7,32.9,24.89,North,-999,0.0,2.7,93,0.00,,,-99.99,FreeWX 2.04,2013-01-27 04:17:00,
2013-01-26 21:22:00,34.9,32.7,24.89,North,-999,0.0,2.7,92,0.00,,,-99.99,FreeWX 2.04,2013-01-27 04:22:00,
2013-01-26 21:27:00,34.9,32.7,24.89,North,-999,0.0,2.7,92,0.00,,,-99.99,FreeWX 2.04,2013-01-27 04:27:00,
2013-01-26 21:32:00,35.1,32.9,24.89,North,-999,0.0,3.1,92,0.00,,,-99.99,FreeWX 2.04,2013-01-27 04:32:00,
2013-01-26 21:37:00,35.1,32.9,24.89,North,-999,0.0,0.0,92,0.00,,,-99.99,FreeWX 2.04,2013-01-27 04:37:00,
2013-01-26 21:42:00,34.9,32.7,24.89,North,-999,0.0,2.7,92,0.00,,,-99.99,FreeWX 2.04,2013-01-27 04:42:00,
2013-01-26 21:47:00,34.7,32.5,24.89,North,-999,0.0,0.0,92,0.00,,,-99.99,FreeWX 2.04,2013-01-27 04:47:00,
2013-01-26 21:52:00,34.5,32.4,24.89,North,-999,0.0,3.1,92,0.00,,,-99.99,FreeWX 2.04,2013-01-27 04:52:00,
2013-01-26 21:57:00,34.7,32.5,24.89,North,-999,0.0,3.1,92,0.00,,,-99.99,FreeWX 2.04,2013-01-27 04:57:00,
2013-01-26 22:02:00,34.9,32.7,24.89,North,-999,0.0,0.0,92,0.00,,,-99.99,FreeWX 2.04,2013-01-27 05:02:00,
2013-01-26 22:07:00,34.9,32.7,24.89,North,-999,0.0,3.1,92,0.00,,,-99.99,FreeWX 2.04,2013-01-27 05:07:00,
2013-01-26 22:12:00,34.9,32.7,24.89,NW,315,1.0,3.6,92,0.00,,,-99.99,FreeWX 2.04,2013-01-27 05:12:00,
2013-01-26 22:17:00,34.9,32.7,24.89,NW,315,3.0,4.9,92,0.00,,,-99.99,FreeWX 2.04,2013-01-27 05:17:00,
2013-01-26 22:22:00,34.7,32.5,24.89,NW,315,3.0,4.0,92,0.00,,,-99.99,FreeWX 2.04,2013-01-27 05:22:00,
2013-01-26 22:27:00,34.5,32.4,24.89,NW,315,2.0,3.6,92,0.00,,,-99.99,FreeWX 2.04,2013-01-27 05:27:00,
2013-01-26 22:32:00,34.3,32.2,24.89,NW,315,2.0,4.0,92,0.00,,,-99.99,FreeWX 2.04,2013-01-27 05:32:00,
2013-01-26 22:37:00,34.3,32.2,24.89,NW,315,3.0,4.0,92,0.00,,,-99.99,FreeWX 2.04,2013-01-27 05:37:00,
2013-01-26 22:42:00,34.2,32.0,24.89,NW,315,2.0,4.5,92,0.00,,,-99.99,FreeWX 2.04,2013-01-27 05:42:00,
2013-01-26 22:47:00,34.2,32.0,24.89,NW,315,1.0,4.0,92,0.00,,,-99.99,FreeWX 2.04,2013-01-27 05:47:00,
2013-01-26 22:52:00,34.0,31.8,24.89,North,-999,0.0,3.1,92,0.00,,,-99.99,FreeWX 2.04,2013-01-27 05:52:00,
2013-01-26 22:57:00,34.0,31.8,24.89,North,-999,0.0,0.0,92,0.00,,,-99.99,FreeWX 2.04,2013-01-27 05:57:00,
2013-01-26 23:02:00,34.0,31.8,24.89,North,-999,0.0,2.7,92,0.00,,,-99.99,FreeWX 2.04,2013-01-27 06:02:00,
2013-01-26 23:07:00,34.0,31.8,24.89,North,-999,0.0,3.6,92,0.00,,,-99.99,FreeWX 2.04,2013-01-27 06:07:00,
2013-01-26 23:12:00,33.8,31.6,24.89,NW,315,1.0,3.1,92,0.00,,,-99.99,FreeWX 2.04,2013-01-27 06:12:00,
2013-01-26 23:17:00,33.8,31.6,24.89,NW,315,2.0,3.6,92,0.00,,,-99.99,FreeWX 2.04,2013-01-27 06:17:00,
2013-01-26 23:22:00,33.6,31.5,24.89,NW,315,2.0,3.1,92,0.00,,,-99.99,FreeWX 2.04,2013-01-27 06:22:00,
2013-01-26 23:27:00,33.6,31.5,24.89,NW,315,1.0,3.6,92,0.00,,,-99.99,FreeWX 2.04,2013-01-27 06:27:00,
2013-01-26 23:32:00,33.6,31.5,24.92,NW,315,1.0,2.7,92,0.00,,,-99.99,FreeWX 2.04,2013-01-27 06:32:00,
2013-01-26 23:37:00,33.6,31.5,24.92,North,-999,0.0,2.7,92,0.00,,,-99.99,FreeWX 2.04,2013-01-27 06:37:00,
2013-01-26 23:42:00,33.6,31.5,24.92,North,-999,0.0,2.7,92,0.00,,,-99.99,FreeWX 2.04,2013-01-27 06:42:00,
2013-01-26 23:47:00,33.6,31.5,24.92,North,-999,0.0,3.1,92,0.00,,,-99.99,FreeWX 2.04,2013-01-27 06:47:00,
2013-01-26 23:52:00,33.6,31.5,24.92,NW,315,1.0,4.0,92,0.00,,,-99.99,FreeWX 2.04,2013-01-27 06:52:00,
2013-01-26 23:57:00,33.3,31.3,24.92,NW,315,2.0,3.6,92,0.00,,,-99.99,FreeWX 2.04,2013-01-27 06:57:00,